Autodesk Operating Margin 2006-2020 | ADSK

Current and historical operating margin for Autodesk (ADSK) over the last 10 years. The current operating profit margin for Autodesk as of January 31, 2020 is 9.49%.
Autodesk Operating Margin Historical Data
Date TTM Revenue TTM Operating Income Operating Margin
2020-01-31 $3.28B $0.34B 10.50%
2019-10-31 $3.11B $0.25B 8.03%
2019-07-31 $2.93B $0.15B 5.25%
2019-04-30 $2.75B $0.06B 2.00%
2019-01-31 $2.57B $-0.03B -0.97%
2018-10-31 $2.39B $-0.25B -10.35%
2018-07-31 $2.24B $-0.36B -16.15%
2018-04-30 $2.13B $-0.45B -20.88%
2018-01-31 $2.06B $-0.51B -24.79%
2017-10-31 $1.98B $-0.50B -24.97%
2017-07-31 $1.96B $-0.52B -26.32%
2017-04-30 $2.01B $-0.47B -23.43%
2017-01-31 $2.03B $-0.50B -24.61%
2016-10-31 $2.20B $-0.34B -15.58%
2016-07-31 $2.31B $-0.24B -10.30%
2016-04-30 $2.37B $-0.17B -7.22%
2016-01-31 $2.51B $0.00B 0.04%
2015-10-31 $2.52B $0.03B 0.99%
2015-07-31 $2.54B $0.06B 2.17%
2015-04-30 $2.57B $0.10B 3.93%
2015-01-31 $2.51B $0.12B 4.81%
2014-10-31 $2.44B $0.16B 6.53%
2014-07-31 $2.37B $0.21B 8.94%
2014-04-30 $2.30B $0.25B 10.71%
2014-01-31 $2.27B $0.29B 12.53%
2013-10-31 $2.29B $0.32B 13.86%
2013-07-31 $2.29B $0.28B 12.42%
2013-04-30 $2.29B $0.29B 12.77%
2013-01-31 $2.31B $0.31B 13.23%
2012-10-31 $2.30B $0.31B 13.62%
2012-07-31 $2.30B $0.37B 16.05%
2012-04-30 $2.28B $0.37B 16.30%
2012-01-31 $2.22B $0.36B 16.07%
2011-10-31 $2.15B $0.34B 15.62%
2011-07-31 $2.08B $0.32B 15.15%
2011-04-30 $2.01B $0.30B 14.96%
2011-01-31 $1.95B $0.27B 13.93%
2010-10-31 $1.88B $0.26B 13.61%
2010-07-31 $1.82B $0.21B 11.70%
2010-04-30 $1.76B $0.14B 7.71%
2010-01-31 $1.71B $0.07B 3.85%
2009-10-31 $1.75B $-0.12B -7.09%
2009-07-31 $1.94B $-0.01B -0.52%
2009-04-30 $2.14B $0.11B 4.95%
2009-01-31 $2.32B $0.25B 10.58%
2008-10-31 $2.43B $0.50B 20.74%
2008-07-31 $2.36B $0.47B 19.91%
2008-04-30 $2.26B $0.47B 20.56%
2008-01-31 $2.17B $0.45B 20.53%
2007-10-31 $2.07B $0.44B 21.35%
2007-07-31 $1.99B $0.41B 20.36%
2007-04-30 $1.91B $0.39B 20.49%
2007-01-31 $1.84B $0.35B 19.02%
2006-10-31 $1.77B $0.33B 18.73%
2006-07-31 $1.69B $0.36B 21.10%
2006-04-30 $1.62B $0.35B 21.37%
2006-01-31 $1.54B $0.38B 24.58%
2005-10-31 $1.48B $0.35B 23.86%
Sector Industry Market Cap Revenue
Computer and Technology Computer Software $30.562B $3.274B
Autodesk, Inc., is a leader in 3D design, engineering and entertainment software. Since its introduction of AutoCAD software in 1982, Autodesk continues to develop the broadest portfolio of 3D software for global markets. Customers across the manufacturing, architecture, building, construction, and media and entertainment industries-including the last 19 Academy Award winners for Best Visual Effects-use Autodesk software to design, visualize, and simulate their ideas before they're ever built or created. From blockbuster visual effects and buildings that create their own energy, to electric cars and the batteries that power them, the work of our 3D software customers is everywhere you look. Through their apps for iPhone, iPad, iPod, and Android, they're also making design technology accessible to professional designers and amateur designers, homeowners, students, and casual creators - anyone who wants to create and share their ideas with the world.
Stock Name Country Market Cap PE Ratio
Microsoft (MSFT) United States $1000.000B 28.17
Oracle (ORCL) United States $153.611B 14.04
Adobe (ADBE) United States $145.123B 42.60
SAP SE (SAP) Germany $125.961B 24.60
Salesforce, Inc (CRM) United States $119.984B 125.29
Intuit (INTU) United States $56.818B 37.03
VMware (VMW) United States $47.550B 26.07
Dassault Systemes SA (DASTY) France $36.584B 40.17
Synopsys (SNPS) United States $18.961B 40.24
Cadence Design Systems (CDNS) United States $18.278B 18.48
ANSYS (ANSS) United States $18.149B 38.83
Citrix Systems (CTXS) United States $17.025B 33.94
SS&C Technologies Holdings (SSNC) United States $10.577B 11.43
Open Text (OTEX) Canada $9.223B 28.15
PTC (PTC) United States $6.502B 41.10
Trend Micro (TMICY) Japan $6.465B 25.00
Aspen Technology (AZPN) United States $6.062B 24.39
Pegasystems (PEGA) United States $5.283B 0.00
Nuance Communications (NUAN) United States $4.622B 20.17
Konami (KNMCY) Japan $4.003B 13.90
Manhattan Associates (MANH) United States $2.892B 34.36
Descartes Systems Group (DSGX) Canada $2.830B 78.21
ACI Worldwide (ACIW) United States $2.608B 39.40
Blackbaud (BLKB) United States $2.572B 41.54
Verint Systems (VRNT) United States $2.441B 15.03
Cornerstone OnDemand (CSOD) United States $1.830B 50.61
CommVault Systems (CVLT) United States $1.754B 83.62
Bottomline Technologies (EPAY) United States $1.506B 72.79
Progress Software (PRGS) United States $1.444B 12.61
PROS Holdings (PRO) United States $1.208B 0.00
MicroStrategy (MSTR) United States $1.146B 93.71
Sapiens (SPNS) Israel $0.885B 23.26
Simulations Plus (SLP) United States $0.581B 65.82
QAD (QADB) United States $0.489B 0.00
American Software (AMSWA) United States $0.441B 44.52
Magic Software Enterprises (MGIC) Israel $0.370B 13.05
Rosetta Stone (RST) United States $0.318B 0.00
Avid Technology (AVID) United States $0.265B 14.26
Smith Micro Software (SMSI) United States $0.159B 15.50
Icad Inc (ICAD) United States $0.140B 0.00
OptimizeRx (OPRX) United States $0.122B 0.00
GlobalSCAPE (GSB) United States $0.120B 8.75
ServiceSource (SREV) United States $0.082B 0.00
Park City (PCYG) United States $0.072B 41.00
NetSol Technologies (NTWK) United States $0.029B 5.55
GSE Systems (GVP) United States $0.019B 6.27
Neonode (NEON) Sweden $0.016B 0.00
BSQUARE (BSQR) United States $0.012B 0.00
CounterPath (CPAH) Canada $0.012B 0.00